Williamsport, PA

8:42 PM EDT on June 21, 2018 (GMT -0400)
Williamsport Rgnl

Weather History for KIPT - June, 2018

Change the Weather History Date:

Thursday, June 14, 2018

  Actual Average Record
Temperature  
Mean Temperature 69 °F 68 °F  
Max Temperature 84 °F 80 °F 97 °F (1988)
Min Temperature 53 °F 58 °F 41 °F (1912)
Degree Days  
Heating Degree Days 0 1  
Month to date heating degree days 16 28  
Since 1 June heating degree days 16 28  
Since 1 July heating degree days 5569 5986  
Cooling Degree Days 4 5  
Month to date cooling degree days 40 51  
Year to date cooling degree days 141 94  
Since 1 June cooling degree days 40 51  
Growing Degree Days 18 (Base 50)    
Moisture  
Dew Point 48 °F    
Average Humidity 55    
Maximum Humidity 86    
Minimum Humidity 23    
Precipitation  
Precipitation 0.00 in 0.14 in 1.20 in (1969)
Month to date precipitation 1.15 1.81  
Year to date precipitation 22.66 16.72  
Sea Level Pressure  
Sea Level Pressure 29.87 in    
Wind  
Wind Speed 11 mph (WNW)    
Max Wind Speed 26 mph    
Max Gust Speed 37 mph    
Visibility 10 miles    
Events      
T = Trace of Precipitation, MM = Missing Value Source: NWS Daily Summary

Daily Weather History Graph

Daily Weather History Graph

Search for Another Location

Airport or City:

Astronomy

Jun. 14, 2018 Rise Set
Actual Time 5:34 AM EDT 8:42 PM EDT
Civil Twilight 5:00 AM EDT 9:15 PM EDT
Nautical Twilight 4:17 AM EDT 9:59 PM EDT
Astronomical Twilight 3:25 AM EDT 10:50 PM EDT
Moon 6:30 AM EDT (6/14) 9:39 PM EDT (6/14)
Length of Visible Light 16h 15m
Length of Day
15h 07m
New Moon, 1% of the Moon is Illuminated
Jun 14
New Moon
Jun 20
First Quarter
Jun 28
Full
Jul 6
Last Quarter
Jul 12
New

Hourly Weather History & Observations

Time (EDT) Temp. Dew Point Humidity Pressure Visibility Wind Dir Wind Speed Gust Speed Precip Events Conditions
12:54 AM 68.0 °F 55.9 °F 65% 29.84 in 10.0 mi West 8.1 mph - N/A   Clear
1:54 AM 64.9 °F 54.0 °F 68% 29.86 in 10.0 mi West 8.1 mph - N/A   Clear
2:54 AM 62.1 °F 51.1 °F 67% 29.87 in 10.0 mi WNW 5.8 mph - N/A   Clear
3:54 AM 57.9 °F 53.1 °F 84% 29.87 in 10.0 mi West 3.5 mph - N/A   Clear
4:54 AM 55.0 °F 52.0 °F 89% 29.87 in 10.0 mi Calm Calm - N/A   Clear
5:54 AM 55.9 °F 51.1 °F 84% 29.88 in 10.0 mi NW 8.1 mph - N/A   Clear
6:54 AM 60.1 °F 50.0 °F 69% 29.88 in 10.0 mi West 8.1 mph - N/A   Clear
7:54 AM 63.0 °F 48.9 °F 60% 29.89 in 10.0 mi West 11.5 mph - N/A   Clear
8:54 AM 66.9 °F 48.0 °F 51% 29.88 in 10.0 mi West 13.8 mph - N/A   Clear
9:54 AM 73.0 °F 50.0 °F 44% 29.87 in 10.0 mi West 9.2 mph - N/A   Clear
10:54 AM 75.9 °F 48.0 °F 37% 29.86 in 10.0 mi West 12.7 mph 26.5 mph N/A   Clear
11:54 AM 80.1 °F 45.0 °F 29% 29.85 in 10.0 mi WNW 20.7 mph 31.1 mph N/A   Clear
12:54 PM 81.0 °F 44.1 °F 27% 29.84 in 10.0 mi West 19.6 mph 26.5 mph N/A   Clear
1:54 PM 82.9 °F 44.1 °F 25% 29.83 in 10.0 mi West 19.6 mph 26.5 mph N/A   Clear
2:54 PM 82.9 °F 43.0 °F 24% 29.83 in 10.0 mi West 20.7 mph 28.8 mph N/A   Partly Cloudy
3:54 PM 82.9 °F 43.0 °F 24% 29.83 in 10.0 mi NW 18.4 mph 28.8 mph N/A   Partly Cloudy
4:54 PM 82.0 °F 41.0 °F 23% 29.84 in 10.0 mi WNW 16.1 mph 26.5 mph N/A   Partly Cloudy
5:54 PM 81.0 °F 43.0 °F 26% 29.84 in 10.0 mi NW 16.1 mph 26.5 mph N/A   Clear
6:54 PM 79.0 °F 44.1 °F 29% 29.85 in 10.0 mi NW 12.7 mph 21.9 mph N/A   Clear
7:54 PM 77.0 °F 44.1 °F 31% 29.86 in 10.0 mi NW 11.5 mph - N/A   Clear
8:54 PM 71.1 °F 46.0 °F 41% 29.88 in 10.0 mi West 6.9 mph - N/A   Clear
9:54 PM 64.9 °F 48.9 °F 56% 29.90 in 10.0 mi WSW 4.6 mph - N/A   Clear
10:54 PM 64.0 °F 48.9 °F 58% 29.92 in 10.0 mi WNW 4.6 mph - N/A   Clear
11:54 PM 62.1 °F 51.1 °F 67% 29.94 in 10.0 mi Calm Calm - N/A   Clear